Wind_Speed
16 21 24 24 24 23 22 21 22 23 23 24 25 27 29 29 27 28 30 30 28 25 24 23 22 21 20 19 18 17 17 19 23 24 21 21 22 20 18 17 16 16 15 14 14 14 15 15 15 15 15 14 14 13 12 11 11 10 10 8 6 5 3 3 2 1 1 2 4 5 4 3 1 1 2 3 3 3 2 2 2 4 5 5 6
15 19 22 23 23 24 23 22 24 26 25 26 27 28 29 29 30 30 30 31 32 31 30 28 26 25 22 19 18 16 16 19 20 22 22 21 22 20 19 19 18 17 16 15 15 15 15 15 15 15 15 15 16 15 13 12 11 11 10 8 6 5 3 3 3 3 2 3 5 5 4 3 1 1 2 2 2 3 3 2 1 3 4 5 6
16 18 21 24 25 25 24 23 26 26 25 27 28 28 28 29 29 29 31 33 34 34 34 33 31 30 26 22 20 16 15 20 21 21 23 22 21 21 20 20 19 18 17 16 16 15 15 15 15 15 15 16 16 15 13 12 11 11 10 8 6 4 3 4 5 4 3 4 4 4 3 3 2 2 2 1 1 3 3 2 2 1 2 4 5
17 18 19 22 24 26 26 25 26 26 25 27 29 29 29 30 31 33 35 36 35 36 37 35 32 32 29 26 23 19 16 19 22 22 23 22 22 22 22 21 20 19 18 18 17 16 15 15 15 15 16 16 16 14 12 12 12 11 11 10 7 5 4 5 6 5 5 5 4 3 2 2 2 2 3 3 1 3 4 3 3 2 2 3 3
17 18 18 20 23 26 27 27 26 26 27 28 30 30 30 31 35 37 37 36 36 38 37 33 30 29 26 23 21 19 17 17 18 19 21 23 22 22 24 23 21 20 20 19 19 18 18 17 16 16 16 17 17 15 13 13 13 12 11 10 9 6 4 5 6 6 7 7 4 2 2 2 2 3 4 3 3 4 4 4 5 4 3 3 2
15 17 18 19 23 25 27 27 27 28 29 29 30 30 30 30 34 37 36 36 36 35 35 33 31 29 25 22 20 19 18 17 18 18 19 23 23 22 24 24 22 21 21 21 20 19 19 19 18 17 17 17 16 15 14 14 13 12 12 11 9 8 6 6 7 7 8 8 7 5 2 1 1 3 3 2 3 4 5 6 6 6 5 5 4
15 16 18 18 22 24 25 29 30 31 31 30 29 30 30 30 33 37 37 36 35 33 34 34 31 29 28 26 23 21 20 19 21 21 21 25 26 25 26 26 24 23 22 22 21 20 20 20 20 19 19 18 17 16 15 14 13 13 12 11 10 10 9 8 7 7 7 8 8 7 4 2 2 4 3 2 2 4 5 6 7 6 7 6 5
15 16 18 19 22 25 27 30 33 33 32 29 29 30 31 32 34 38 38 36 36 34 35 36 34 31 30 28 24 24 22 20 22 25 24 26 27 27 27 27 26 24 23 23 22 21 20 20 20 20 20 19 18 17 16 14 14 14 12 12 11 10 11 10 8 8 7 7 7 7 5 5 5 5 5 4 3 3 4 6 7 7 7 7 7
17 17 19 20 22 28 31 32 33 33 31 29 31 31 31 33 34 37 38 37 37 38 38 38 38 36 32 28 25 24 23 20 21 24 24 26 27 27 27 27 27 26 25 25 24 22 21 20 20 20 20 20 19 17 16 15 15 14 13 13 12 11 12 12 10 9 9 7 7 7 5 4 5 5 5 6 5 4 3 4 7 7 7 8 10
17 18 19 20 25 30 30 30 31 31 30 30 30 28 27 29 31 34 37 37 37 39 40 40 40 38 34 32 29 25 23 21 20 21 23 25 25 26 27 27 27 27 26 26 25 24 23 22 22 21 20 20 20 18 17 16 15 15 14 13 12 11 12 14 13 11 10 8 7 7 6 5 4 4 5 6 5 5 5 4 6 7 7 8 10
17 18 18 21 26 28 27 28 29 29 29 28 27 27 26 26 29 32 35 36 36 38 40 40 39 38 38 37 34 28 25 24 22 21 23 24 24 24 26 27 27 28 27 27 27 26 25 24 23 22 21 21 20 20 18 17 16 15 15 14 13 12 13 15 15 13 11 10 8 7 7 7 6 5 5 6 5 5 5 5 5 6 6 7 8
18 17 18 19 21 23 24 27 28 28 28 28 28 27 26 26 28 30 32 34 35 36 38 39 37 37 38 39 37 33 30 29 28 26 26 26 26 23 25 27 28 28 28 28 28 27 27 26 25 23 23 22 22 21 20 18 16 16 15 15 14 13 13 15 16 14 12 10 9 8 8 8 8 7 5 5 6 5 4 5 5 4 5 6 7
18 17 17 17 18 19 23 27 28 28 29 30 30 29 28 27 29 30 30 33 35 35 37 38 37 37 38 38 37 35 34 34 33 30 29 30 28 25 26 28 28 29 30 29 29 29 29 28 27 26 24 23 22 22 21 19 18 17 16 16 15 14 14 16 17 15 13 11 9 8 9 9 9 8 6 5 5 4 4 5 3 3 5 5 4
18 17 17 17 17 18 22 27 27 28 31 32 32 32 30 28 30 32 31 33 36 35 35 38 39 40 40 38 36 35 36 36 34 31 30 32 32 29 29 29 29 31 32 32 31 30 31 30 28 27 25 24 23 22 22 21 19 18 17 16 16 16 15 17 18 16 14 13 11 9 9 10 10 9 7 7 6 5 5 5 3 3 4 4 2
17 17 19 19 18 19 23 26 27 29 32 33 33 33 31 29 31 35 33 33 37 36 35 37 40 41 40 39 37 37 38 36 34 33 32 34 34 32 32 31 31 33 34 33 32 31 31 30 29 28 26 25 24 24 24 23 21 19 18 17 17 17 16 17 18 17 16 15 14 13 11 10 10 9 9 8 7 6 6 5 4 3 3 4 3
17 18 20 20 19 20 23 25 27 29 31 32 33 33 34 32 33 38 38 35 38 39 37 37 40 40 40 40 38 37 38 35 34 36 36 36 35 34 35 35 34 34 34 34 32 32 31 30 30 29 27 26 24 25 25 24 23 21 19 19 18 18 18 18 19 18 17 16 16 16 14 11 9 10 9 8 8 8 6 6 6 5 3 3 3
18 19 20 20 19 20 24 26 26 29 31 33 34 35 36 35 34 38 39 35 37 40 39 38 39 39 39 41 38 36 38 37 36 38 35 32 34 36 36 35 36 35 34 33 32 32 32 31 31 29 28 26 24 24 26 25 25 23 21 20 20 19 19 19 20 19 17 16 15 16 15 13 11 12 10 9 9 9 8 7 7 6 4 3 3
19 20 19 18 18 20 25 28 29 31 33 35 37 37 38 38 36 37 38 38 38 40 40 39 39 38 37 39 39 37 37 36 34 34 32 31 34 36 35 34 36 35 33 33 32 32 32 32 31 30 29 27 24 24 26 26 26 24 23 22 21 20 21 21 20 19 18 17 16 16 16 14 13 12 10 9 10 10 9 9 8 7 6 5 4
16 17 16 16 19 21 26 30 32 33 33 34 37 36 36 37 37 37 38 40 39 38 38 38 38 38 36 38 40 39 37 35 32 31 33 35 36 36 35 34 35 36 35 34 33 32 32 32 31 31 30 28 26 25 26 27 27 26 25 23 23 22 22 22 22 20 19 18 17 17 17 15 14 12 11 10 10 10 10 10 10 9 8 7 6
15 16 17 19 21 23 29 32 33 34 33 33 34 35 36 37 36 36 36 35 35 35 35 38 40 38 36 37 39 41 40 37 35 34 36 38 37 37 36 35 36 37 36 35 34 33 33 32 32 30 30 30 28 27 27 28 28 28 27 25 25 24 24 24 23 22 20 19 18 18 18 16 15 13 12 11 10 10 10 10 10 9 9 9 8
15 16 18 20 21 23 29 33 32 32 31 31 31 32 34 35 35 37 36 33 34 35 35 37 39 37 37 39 39 40 41 39 37 38 39 39 38 39 39 37 37 38 38 37 36 36 35 34 32 31 31 32 31 29 28 29 29 29 28 27 26 26 26 26 25 23 22 20 20 20 19 17 16 15 13 12 11 11 11 10 10 9 9 10 9
15 16 17 18 18 20 25 29 29 28 28 29 30 30 32 34 35 36 36 34 35 35 34 37 38 37 38 40 38 38 40 39 36 36 37 38 38 40 41 39 38 39 39 39 38 38 37 35 33 33 33 34 33 31 30 30 30 30 30 29 29 28 28 28 27 25 24 22 21 21 20 19 18 16 15 13 12 12 12 11 11 10 9 9 10
11 13 14 15 16 17 20 23 25 27 27 30 31 30 32 35 35 34 34 35 36 35 34 37 39 39 38 39 37 35 36 37 36 35 35 35 35 37 40 41 39 37 38 41 40 40 39 37 35 35 35 36 34 33 32 32 32 32 32 31 31 30 30 30 29 27 25 24 23 22 22 20 19 18 17 15 13 14 14 12 12 11 10 9 11
7 10 11 12 13 14 15 16 19 23 26 28 30 31 32 33 33 33 35 36 36 34 33 36 39 38 36 36 36 35 35 36 36 35 34 34 33 33 37 41 38 34 36 41 42 41 40 39 37 36 36 37 36 35 34 34 33 33 33 33 33 32 32 32 31 29 27 25 25 25 24 22 21 20 18 17 16 16 16 15 13 13 12 11 12
7 9 10 11 12 13 13 14 16 21 26 28 30 30 31 32 33 34 34 34 34 33 32 35 37 36 35 36 37 36 35 36 36 34 34 34 33 32 32 36 36 34 35 40 42 41 41 40 39 38 37 37 37 37 36 36 35 34 34 34 34 34 34 34 33 31 29 27 27 27 26 25 23 21 19 18 19 19 19 17 16 14 14 14 14
8 9 9 10 11 12 14 14 15 20 25 27 29 30 31 32 33 34 34 32 32 33 32 33 35 35 35 36 37 37 36 37 36 35 34 34 34 32 31 33 36 35 35 37 41 42 42 41 40 39 38 39 39 38 38 37 36 36 35 36 36 35 35 35 34 33 32 30 29 28 28 27 25 23 22 21 21 21 21 19 18 16 15 15 15
7 6 6 8 9 11 14 14 15 20 25 27 29 31 32 31 32 33 32 30 31 33 32 32 35 35 35 36 37 38 38 37 36 36 35 34 35 34 32 32 35 35 34 36 39 41 42 42 41 40 39 39 40 39 39 39 38 37 37 37 37 36 36 36 35 35 34 33 31 30 29 28 27 25 24 23 22 22 22 21 20 18 15 15 14
6 6 8 9 10 11 12 12 15 19 24 26 28 30 30 30 31 32 31 31 32 32 32 33 34 35 35 37 38 37 37 37 36 36 36 35 34 35 33 33 34 35 35 36 38 40 42 41 41 40 40 39 40 41 40 40 40 38 38 38 38 38 37 36 36 36 35 35 33 32 30 29 28 26 25 24 23 22 22 22 22 19 17 16 14
7 8 9 10 10 11 11 12 13 17 21 23 26 28 28 28 29 30 32 33 31 32 34 32 33 36 36 36 36 34 35 38 37 36 37 37 35 34 34 33 35 37 37 36 37 38 39 39 38 38 38 37 38 42 43 42 42 41 39 39 39 39 38 37 36 36 35 36 35 33 31 30 28 26 25 25 24 22 22 22 22 21 19 18 16
8 8 9 10 11 11 11 11 11 14 18 22 24 26 28 30 31 31 33 34 31 34 37 34 33 35 34 34 37 36 35 39 39 38 40 40 37 35 36 37 38 38 37 38 38 36 35 36 35 36 36 34 35 41 44 44 43 42 42 40 40 40 39 38 37 36 35 36 36 34 33 31 28 26 25 26 25 23 22 21 21 21 20 19 17
7 7 7 8 9 10 10 11 13 15 18 22 23 25 28 30 31 31 33 33 32 34 37 37 34 33 32 36 41 39 36 38 40 39 40 41 38 36 37 39 40 38 36 38 41 38 34 32 33 34 35 34 34 38 43 45 44 44 43 42 42 41 40 39 38 36 36 37 36 35 34 32 29 28 27 27 26 24 22 21 21 21 20 19 17
5 4 5 7 9 10 12 14 15 16 19 23 24 25 26 28 31 33 34 33 32 33 37 37 33 32 36 40 40 38 37 37 39 38 38 39 38 36 36 37 37 36 36 38 39 38 35 33 32 33 35 35 35 38 42 45 45 45 44 43 42 41 40 39 39 38 38 37 36 35 34 33 31 30 29 28 27 25 22 21 20 20 20 19 18
5 5 6 8 9 9 12 14 15 18 23 27 27 26 26 30 31 29 29 30 31 33 36 36 31 33 39 41 38 37 37 36 37 37 36 37 36 36 36 36 35 36 36 37 37 36 36 35 34 35 36 36 36 39 43 45 45 46 46 43 41 41 41 41 40 40 39 39 37 35 34 34 33 32 30 30 27 24 21 20 19 19 20 19 19
7 7 7 7 7 8 10 13 16 20 23 25 26 27 28 28 26 23 25 27 28 30 32 31 30 34 38 39 38 38 37 36 37 36 35 36 37 37 37 35 34 35 36 37 37 37 36 36 36 37 37 35 34 38 43 45 45 46 46 44 42 41 42 42 41 41 41 40 39 37 36 36 35 34 33 30 26 22 21 21 20 20 20 20 20
6 7 7 6 6 8 9 11 15 19 20 21 25 28 27 25 23 24 28 31 31 31 30 27 28 32 35 36 38 37 35 34 35 34 34 36 37 37 36 34 33 35 36 36 37 37 37 37 37 37 36 34 34 36 42 45 45 45 45 44 42 41 41 42 42 42 42 41 41 40 39 38 37 36 35 31 27 24 22 22 21 21 20 19 20
5 6 6 6 6 8 9 11 12 15 18 21 24 25 24 24 24 25 27 30 30 29 27 27 28 30 33 35 36 34 33 32 32 32 32 34 35 35 34 33 33 33 33 34 36 37 37 37 37 37 36 35 34 36 41 44 45 45 44 44 43 40 41 43 42 43 43 42 42 42 40 39 38 37 36 32 29 26 24 22 21 19 18 17 17
6 6 7 8 8 10 11 11 11 13 17 19 20 22 23 23 23 24 26 27 26 26 27 30 31 32 33 34 33 32 31 30 30 31 32 33 34 33 33 33 33 32 32 34 36 36 36 35 36 37 37 36 35 37 40 42 43 43 43 44 43 40 41 43 43 43 44 43 43 43 41 39 39 38 36 33 31 28 25 22 20 18 17 16 15
6 7 7 8 9 10 10 10 11 13 15 16 18 20 21 20 20 23 23 22 23 25 27 30 32 32 32 33 33 32 31 30 31 33 33 33 34 33 33 34 34 32 32 33 33 34 36 37 36 37 38 36 35 36 38 39 42 43 43 45 44 40 40 44 44 43 44 44 43 43 41 40 39 38 35 31 30 28 25 22 20 18 17 16 15
5 5 7 7 7 6 5 5 8 9 11 14 17 19 19 18 18 20 20 21 24 27 28 30 31 29 30 33 35 34 32 31 33 34 33 32 32 31 30 31 32 31 31 31 31 32 36 36 35 36 38 36 35 36 37 38 41 43 43 45 46 41 37 40 42 41 41 43 43 41 40 39 37 35 32 29 29 29 24 21 21 19 17 16 17
5 5 5 5 3 3 4 2 2 3 5 11 16 17 17 16 15 17 20 22 24 24 25 26 24 23 27 32 32 32 33 34 34 34 32 30 29 28 27 28 30 30 30 31 32 33 35 35 35 36 36 35 36 38 40 40 41 44 44 45 47 44 38 37 36 35 36 39 40 38 38 38 36 33 31 29 30 29 25 23 23 20 17 17 19
5 5 4 4 7 9 9 7 6 4 0 7 12 14 13 13 13 15 18 19 19 20 22 22 21 21 24 26 28 30 33 34 32 31 29 27 27 27 27 28 29 29 30 32 33 34 34 34 35 35 35 35 37 40 43 42 42 45 46 46 48 49 47 42 35 32 32 34 32 29 31 35 36 32 30 30 31 29 26 25 25 22 20 20 20
4 4 3 6 9 11 11 10 9 8 5 4 8 9 8 10 10 9 10 11 13 19 24 23 23 22 22 23 26 28 29 28 27 26 26 25 25 26 27 28 28 29 31 32 32 32 33 34 34 34 35 36 37 42 46 46 45 46 47 48 50 52 52 47 38 33 33 31 28 26 28 33 35 34 32 31 30 27 26 26 24 23 22 21 20
4 4 6 8 10 12 13 12 11 11 10 7 7 7 6 6 5 2 0 4 9 15 20 22 23 24 23 24 27 29 30 28 25 26 26 25 24 25 26 26 27 28 29 30 31 31 32 33 31 30 33 36 37 40 45 47 47 48 49 50 52 52 52 50 41 35 36 34 29 27 28 30 33 34 33 32 29 26 26 25 23 22 22 20 20
5 5 7 9 10 12 14 14 14 14 14 12 10 10 10 8 6 5 3 2 5 10 15 18 21 23 23 23 24 28 31 29 26 26 26 25 25 26 25 26 27 29 29 28 29 30 30 30 29 26 28 32 33 36 41 45 46 48 49 51 53 52 52 51 46 43 43 40 35 31 29 29 30 30 29 29 28 26 25 25 23 22 22 22 23
6 7 9 10 11 13 14 15 16 15 15 15 14 13 13 11 6 4 3 2 4 8 10 13 16 19 21 22 22 24 27 27 26 26 26 26 26 25 25 27 28 29 29 29 30 30 29 29 29 27 26 29 30 31 36 41 44 46 47 49 52 53 53 52 51 48 47 44 40 36 32 31 29 27 27 27 26 25 25 25 25 24 23 25 27
7 8 8 10 12 13 15 16 16 15 15 15 14 14 13 10 7 6 6 5 5 6 7 7 8 9 13 15 17 18 21 23 24 25 26 27 27 25 26 28 28 29 31 31 30 31 29 28 29 27 26 27 28 31 36 41 44 47 48 49 51 52 53 52 49 44 42 42 39 35 31 29 27 27 27 27 26 26 28 27 26 26 27 29 29
9 9 8 9 10 11 13 14 14 15 15 15 15 15 14 11 10 9 8 8 8 7 7 5 4 3 4 6 9 11 13 15 18 21 23 24 25 25 25 25 27 29 31 31 30 30 29 29 30 28 25 25 28 33 38 43 48 52 54 54 54 54 52 49 42 36 35 36 34 30 28 25 24 24 25 25 27 29 30 28 27 29 30 30 29
10 10 9 10 11 11 12 13 14 14 15 15 15 15 14 13 13 11 9 10 10 9 8 7 6 5 3 2 4 7 9 10 12 16 19 20 22 25 26 27 30 32 32 32 32 32 32 33 32 28 26 26 30 36 42 47 52 54 51 49 50 49 46 42 35 30 30 31 29 27 26 24 24 24 24 24 28 31 31 31 31 31 31 31 29
9 10 11 12 11 12 13 14 14 14 15 15 15 15 14 13 12 11 10 11 11 10 9 8 6 5 4 3 2 3 6 8 9 13 16 19 22 24 25 27 30 33 34 33 32 32 33 33 31 30 29 29 31 40 47 48 51 54 52 49 51 51 48 41 33 27 27 28 27 26 26 25 24 23 22 23 27 29 30 31 30 27 27 29 29
9 10 13 13 12 12 14 14 14 15 15 15 14 14 13 12 11 10 10 10 9 9 9 8 7 6 5 3 2 1 3 5 7 10 13 17 22 26 28 28 28 30 33 33 32 31 30 28 27 31 36 38 40 44 46 45 48 55 58 57 58 60 57 50 42 34 29 29 29 27 27 27 27 26 24 23 24 25 27 30 28 25 23 23 26
10 11 13 13 12 13 14 15 14 15 14 14 13 13 13 12 11 10 10 10 9 9 8 7 6 6 5 4 2 1 1 2 5 7 9 12 17 22 27 30 31 31 32 34 34 34 33 30 29 30 35 41 43 40 38 42 49 56 59 59 59 58 54 50 48 44 38 35 36 35 33 31 31 31 30 29 28 27 27 27 28 26 21 18 21
Wind_Direction
189 191 197 198 197 195 194 195 195 196 196 194 194 196 198 198 197 201 205 205 204 204 203 203 204 205 208 211 216 220 222 228 235 237 238 241 242 242 240 237 234 236 242 248 255 259 260 261 262 261 258 254 253 260 263 257 256 256 253 256 262 260 251 231 204 194 207 152 120 130 141 138 143 265 297 301 279 258 268 311 22 34 39 44 36
186 190 193 196 197 195 195 197 198 199 196 195 196 198 199 199 201 202 203 205 208 209 207 206 205 206 207 208 213 216 218 223 229 234 237 240 242 241 238 235 233 236 242 247 254 259 258 259 260 261 259 253 253 257 260 256 254 252 247 246 253 250 241 212 186 182 194 164 143 138 138 143 165 268 289 297 269 236 243 268 343 32 42 42 38
188 190 191 194 197 196 197 199 202 202 198 197 199 198 198 199 201 201 203 207 210 210 211 210 211 214 213 212 214 214 218 227 231 235 239 241 242 240 236 235 235 238 242 245 251 257 258 258 260 261 257 253 252 254 255 252 248 246 240 238 240 229 213 192 181 182 171 152 152 159 164 174 188 217 229 258 265 227 225 241 275 353 21 28 39
189 191 192 195 197 198 199 199 201 202 202 201 199 198 198 199 201 202 205 208 209 211 214 213 214 217 218 218 220 221 225 234 235 237 241 242 241 239 237 235 236 239 242 244 249 254 259 259 259 259 257 254 253 252 251 247 244 240 234 234 234 224 206 185 183 190 182 171 167 160 166 203 214 190 191 204 240 224 214 228 256 275 321 350 25
191 191 193 194 197 198 199 199 199 202 204 203 201 199 199 200 203 205 207 208 209 212 213 211 211 213 213 215 221 224 226 229 229 230 234 237 238 238 238 236 237 241 243 246 248 253 258 259 258 257 257 256 254 253 251 246 242 238 233 233 235 235 215 184 188 198 200 195 187 168 169 218 217 175 186 202 218 224 218 225 246 254 270 297 323
196 194 194 195 197 198 199 199 199 203 206 205 203 202 202 201 203 205 206 208 209 210 209 208 208 208 204 203 207 212 216 218 217 217 221 229 232 234 237 237 238 242 245 247 249 253 256 257 258 257 256 256 255 255 253 247 241 236 235 233 234 234 212 186 190 200 205 203 201 206 227 257 150 165 191 205 204 221 228 228 237 245 254 267 275
199 198 196 196 197 197 200 200 201 205 207 206 204 204 203 201 202 204 206 207 208 207 206 207 206 204 204 204 204 206 209 212 215 216 220 228 231 233 237 238 238 242 246 247 249 253 255 253 255 257 256 256 255 256 255 248 240 238 239 234 236 236 214 197 196 197 200 205 209 217 226 225 184 183 204 216 206 219 229 233 235 236 243 251 253
199 199 198 199 199 198 201 201 203 207 207 204 204 204 203 202 203 205 206 207 207 205 205 206 205 205 206 206 207 209 210 211 217 220 223 229 232 234 236 238 238 240 243 246 247 252 253 250 252 255 255 254 253 255 257 251 243 243 240 233 236 237 220 208 203 202 204 202 204 212 220 224 223 219 222 230 242 238 224 227 231 235 241 243 240
200 200 199 200 201 202 203 202 205 207 206 205 206 205 204 203 204 206 207 207 208 207 207 208 209 208 206 205 208 212 212 214 218 221 223 227 230 232 234 236 237 238 240 243 245 249 251 250 251 253 254 253 251 254 256 254 249 246 240 234 237 238 227 218 212 213 217 209 198 203 209 214 220 224 223 226 242 253 241 225 223 228 238 243 240
202 203 202 201 204 205 204 204 205 206 206 208 208 207 205 203 203 205 208 208 207 208 208 208 209 209 207 207 209 209 209 211 213 216 220 222 224 227 231 232 234 236 238 240 242 245 248 249 250 251 252 251 250 252 254 254 251 246 240 237 241 243 234 227 222 221 223 221 210 203 202 202 209 217 218 220 230 243 257 253 230 225 236 240 237
200 202 203 204 207 207 205 205 207 205 206 209 209 207 207 205 203 206 209 208 207 208 208 209 208 208 210 212 211 209 207 207 209 211 214 217 218 220 225 228 231 234 236 238 241 243 244 245 249 250 250 249 249 250 252 252 251 246 240 239 243 244 238 231 229 228 228 227 223 213 210 216 221 226 225 222 225 231 245 259 250 244 254 253 240
197 200 202 203 205 205 204 206 207 204 204 207 208 208 208 206 204 206 208 207 207 207 207 208 208 208 211 213 213 211 208 209 210 212 212 214 215 215 220 224 228 231 234 236 240 241 239 241 245 247 247 247 247 248 251 250 249 246 242 240 243 244 239 232 230 231 230 229 229 224 224 229 229 236 238 222 224 232 243 262 266 256 261 262 253
196 198 200 200 200 198 201 204 203 200 201 205 207 208 208 206 203 205 207 207 208 207 207 207 208 209 211 212 212 212 212 213 214 214 214 216 216 214 217 221 224 228 230 234 237 237 237 238 240 243 244 244 244 247 251 250 249 247 243 241 244 245 239 231 228 229 231 232 234 230 229 233 231 233 237 224 217 219 230 252 251 231 255 266 260
198 198 199 201 199 195 198 202 200 199 202 204 205 206 207 204 201 205 207 207 208 207 206 207 209 212 213 212 212 212 214 215 216 216 216 218 219 217 219 220 222 227 230 233 235 234 235 237 238 241 242 243 243 246 249 249 248 247 244 242 244 247 242 232 228 229 233 239 243 239 233 233 234 231 229 226 222 216 221 232 214 206 244 262 258
198 198 200 202 199 195 197 199 198 200 203 204 204 204 203 201 200 204 206 206 208 208 206 208 210 213 213 213 212 214 215 216 216 217 218 220 221 220 222 223 223 228 231 234 235 235 235 237 237 238 239 241 243 245 247 246 245 244 243 242 244 246 241 232 229 230 236 244 249 249 243 236 235 233 228 228 231 232 231 225 209 211 241 251 253
199 200 202 202 199 195 198 199 198 199 201 203 203 201 201 202 201 205 207 206 207 207 206 208 211 212 213 213 213 215 216 216 216 219 220 222 222 222 224 226 227 229 232 234 235 236 236 236 236 237 237 240 242 243 244 244 243 241 240 240 241 243 239 231 230 233 238 246 250 251 249 241 238 235 230 230 233 234 229 216 209 219 245 264 264
199 202 202 200 195 195 201 202 199 198 199 201 202 199 200 202 201 204 206 204 204 207 207 208 210 211 212 213 213 213 215 216 217 220 219 219 222 224 225 227 229 230 232 233 234 235 236 235 235 236 238 239 239 240 242 242 241 239 239 240 240 240 237 232 232 233 236 242 246 249 249 245 242 239 232 230 232 230 226 220 214 218 227 252 277
200 202 200 196 194 196 202 204 203 201 200 200 201 200 201 203 202 203 203 202 203 205 206 207 208 210 211 212 212 213 214 215 216 217 216 215 220 223 223 225 228 230 231 232 233 233 235 235 235 236 237 237 236 237 240 241 239 237 237 240 240 239 236 232 233 233 235 239 243 248 249 245 241 237 227 223 225 223 225 226 222 221 221 228 255
201 202 200 196 198 200 201 204 205 203 202 202 201 200 201 204 204 205 205 204 202 202 202 205 207 209 210 212 213 214 214 214 214 213 214 216 219 221 221 222 226 229 231 232 232 232 233 234 234 234 235 235 234 235 237 238 237 234 234 237 238 238 235 233 234 234 234 239 242 245 249 246 240 233 222 218 218 215 218 220 219 223 224 224 233
202 201 202 200 201 203 202 204 205 203 203 203 201 200 201 203 204 205 207 204 201 199 198 201 204 206 208 210 212 214 214 214 213 214 216 218 219 220 220 221 224 227 230 232 233 232 233 234 233 231 231 231 232 232 233 236 234 233 233 234 235 235 233 232 234 235 235 237 240 243 246 246 243 235 225 221 217 211 209 208 210 216 222 224 221
200 199 202 200 202 205 204 205 205 204 204 203 202 201 202 203 203 204 204 200 199 199 198 201 203 203 206 208 209 212 214 214 214 216 218 218 219 221 222 222 224 227 228 230 232 233 234 234 232 229 228 229 230 229 230 232 232 231 232 233 234 234 232 231 232 234 234 235 238 240 242 244 243 237 230 226 220 215 210 207 211 214 217 227 224
201 200 201 199 200 203 204 203 201 202 204 202 201 202 202 204 205 204 203 201 201 200 198 200 201 201 204 207 208 209 212 212 212 214 216 217 218 220 222 222 223 226 227 228 231 233 234 234 231 229 228 228 229 229 228 229 229 230 230 231 232 232 231 230 230 232 233 234 236 238 240 241 241 236 232 229 221 218 215 212 220 224 221 232 237
207 204 202 200 200 199 199 197 194 196 200 199 200 202 203 205 205 204 202 202 202 200 198 198 200 202 204 205 206 207 208 209 210 211 213 214 216 218 221 223 222 223 226 228 230 232 233 233 230 228 228 228 229 228 227 227 228 229 229 230 231 231 229 228 229 231 232 233 235 236 235 236 238 234 230 227 223 220 220 218 223 231 232 236 246
207 205 203 200 198 193 194 194 193 196 199 198 199 202 204 204 204 204 204 203 201 198 196 196 199 202 202 202 205 205 206 208 209 211 212 212 213 215 218 222 221 219 223 227 229 230 232 232 229 227 227 227 227 227 226 226 228 229 229 231 232 231 229 228 229 231 231 232 234 235 233 233 234 232 226 225 224 222 222 223 225 233 237 240 245
211 205 197 195 194 192 195 198 197 199 199 198 199 200 201 203 203 204 206 204 199 197 197 196 198 200 200 202 204 205 207 208 209 211 212 212 212 212 214 216 217 216 219 225 227 227 229 230 228 226 226 226 226 227 226 225 226 228 230 231 232 232 230 229 230 231 231 232 234 235 234 232 231 228 223 222 224 223 224 225 226 230 237 241 242
225 213 196 193 196 197 199 199 198 198 198 198 199 201 202 203 203 204 205 202 198 198 198 196 196 198 200 202 203 204 207 208 208 209 209 210 210 210 210 212 214 215 216 221 225 226 227 228 228 226 225 226 226 227 227 226 225 227 229 230 231 232 232 231 231 231 231 233 234 235 236 234 232 228 224 224 224 224 225 226 227 230 235 240 239
236 222 201 196 199 202 202 200 199 198 197 197 199 202 202 201 202 204 202 199 197 197 196 195 195 197 199 201 201 202 204 205 206 206 207 208 208 209 209 210 212 213 213 217 222 225 226 227 227 226 225 225 226 226 227 226 225 226 228 228 229 230 232 231 231 231 232 233 234 235 236 236 234 232 230 229 226 223 225 228 231 231 233 235 233
231 218 210 205 206 206 204 203 200 198 198 197 199 201 200 199 201 200 198 198 195 192 192 192 193 196 200 201 200 200 201 202 202 202 204 206 206 207 208 209 210 211 212 216 220 223 225 226 225 225 225 225 225 226 226 226 225 226 227 227 227 229 230 230 231 231 232 233 234 235 236 237 237 236 234 233 229 225 224 227 231 231 231 232 229
225 218 212 209 212 209 205 205 202 200 199 198 200 202 199 199 199 196 197 199 193 189 191 192 193 198 200 198 196 197 199 201 200 201 204 205 205 205 206 208 211 212 213 215 218 221 223 222 221 222 223 222 223 225 226 225 225 225 226 226 226 228 228 227 229 230 230 232 233 233 234 236 238 239 237 236 234 231 228 229 232 232 230 230 230
230 225 216 212 215 211 206 205 202 201 200 200 201 202 201 202 201 197 198 198 194 193 196 198 200 201 199 196 197 199 201 203 204 205 207 208 206 206 207 210 213 215 214 215 218 218 218 218 217 217 218 218 220 224 226 225 225 225 226 225 225 226 226 227 227 227 228 231 232 232 233 236 237 237 236 237 235 235 234 233 235 235 231 230 230
238 236 233 226 221 215 207 206 206 204 202 202 202 201 202 205 203 201 200 198 196 196 198 202 203 200 198 201 203 205 205 206 207 208 209 209 208 208 210 213 215 214 213 216 219 218 215 215 214 215 216 215 218 223 226 225 225 226 226 225 224 225 225 226 227 226 228 230 230 230 232 233 233 232 233 235 234 234 235 233 233 233 233 234 231
245 236 236 233 230 221 211 211 213 208 204 204 203 200 201 204 204 203 200 197 196 196 199 203 203 198 200 203 203 203 204 205 206 206 207 208 208 208 210 212 213 213 212 214 217 216 216 215 214 216 217 216 218 223 225 225 225 226 225 223 224 224 224 225 226 226 229 230 228 227 228 229 229 229 231 233 233 232 232 229 227 228 230 233 232
256 244 235 233 235 229 219 217 214 208 206 205 202 199 200 204 205 201 197 196 196 197 200 202 200 197 201 202 200 201 203 204 204 204 204 205 206 208 210 210 211 211 211 213 214 214 215 216 216 219 220 218 219 224 225 224 224 226 225 221 221 223 224 225 226 227 228 229 227 225 224 224 226 227 228 229 230 228 226 223 220 222 226 229 229
258 255 248 239 237 237 233 226 221 217 214 207 202 202 202 202 199 194 194 199 200 201 203 202 198 198 200 200 200 202 203 203 203 201 201 203 205 209 211 211 211 211 211 213 214 213 215 217 217 218 219 218 219 223 225 224 224 226 224 220 219 222 225 227 228 229 229 228 227 226 223 223 224 224 223 224 222 220 219 218 214 215 222 226 227
255 259 260 252 246 247 244 238 231 224 215 205 203 205 202 199 195 191 195 201 203 205 206 203 200 200 200 200 201 202 202 202 201 199 200 203 205 209 209 208 210 212 214 216 216 214 215 217 217 217 218 219 220 222 224 224 224 224 222 218 218 221 224 226 228 230 230 229 228 227 225 225 225 222 220 219 216 214 214 214 212 212 217 221 224
266 273 275 273 268 265 259 252 242 225 211 206 206 203 199 199 198 193 194 198 200 201 202 200 199 200 200 201 201 201 201 201 199 199 201 204 206 208 208 207 209 212 214 217 218 217 216 217 218 218 218 221 223 223 223 223 222 222 219 216 215 218 223 225 227 229 230 229 230 229 227 225 223 221 219 217 215 215 214 211 208 208 211 211 216
283 286 285 282 278 273 267 260 246 225 212 207 204 198 195 196 196 193 193 193 195 197 198 198 199 200 200 201 200 199 200 199 199 201 203 205 207 208 208 208 210 211 212 216 220 221 220 220 220 219 218 220 222 222 222 222 220 218 216 214 213 215 221 224 226 228 229 229 230 229 227 223 221 220 219 216 215 217 215 211 208 204 203 201 206
300 300 298 295 284 275 269 258 242 227 213 202 195 190 188 189 190 191 190 189 193 198 198 199 201 200 198 197 197 198 198 198 200 203 205 205 207 208 208 208 210 212 213 216 219 222 224 223 222 222 220 218 219 220 220 220 218 216 214 213 212 212 218 223 225 227 228 230 231 229 226 223 221 221 219 214 216 219 215 211 208 202 197 194 195
324 325 320 314 296 277 273 254 238 230 211 196 190 185 185 188 189 188 187 190 197 201 201 202 202 200 197 198 199 199 199 199 203 206 207 207 207 208 208 209 212 214 216 218 219 221 224 224 224 225 221 216 217 220 220 217 216 214 212 211 211 211 214 220 223 224 226 228 229 228 226 224 222 221 218 215 217 219 214 211 210 202 194 190 191
355 352 337 338 2 54 62 45 297 274 220 195 188 185 187 189 184 186 194 199 202 203 202 202 201 199 201 202 202 200 200 202 205 207 208 208 208 208 208 210 213 215 217 219 220 222 224 224 224 223 221 217 216 218 219 216 213 213 211 209 209 210 212 216 219 218 220 223 226 225 224 223 221 219 217 216 217 215 211 210 210 204 195 193 194
359 3 1 39 59 65 66 52 25 8 309 187 184 183 185 184 181 190 201 204 204 205 205 205 203 203 205 205 204 205 206 206 207 206 207 210 210 210 210 212 215 218 220 221 222 223 225 226 225 223 221 219 215 215 217 214 211 211 210 207 207 210 213 215 215 213 214 217 219 218 218 219 219 216 215 215 215 212 208 208 210 209 206 204 200
5 26 58 83 74 68 66 52 37 38 58 144 175 175 175 178 180 193 207 206 204 205 207 206 204 204 205 205 206 208 209 209 208 206 206 209 210 209 211 212 214 217 220 221 222 224 226 229 228 225 223 221 218 215 215 212 209 209 209 206 208 212 214 214 214 214 214 214 212 211 213 216 215 213 213 216 215 211 206 207 210 211 212 211 204
8 43 74 86 81 72 66 55 45 45 51 83 135 138 132 145 136 77 274 215 208 207 207 206 203 203 203 204 206 209 210 209 208 207 207 209 209 208 209 211 212 214 218 221 222 223 226 228 228 225 223 223 221 217 214 211 208 208 208 207 210 213 214 212 212 213 213 211 207 205 208 211 212 211 213 217 216 210 206 207 209 210 209 207 198
360 26 60 77 81 76 70 62 56 52 52 63 85 94 90 86 65 41 42 188 205 207 207 206 207 208 208 206 207 209 210 210 209 208 208 209 209 208 209 210 211 214 217 222 223 223 225 226 226 223 221 220 219 217 215 213 212 210 209 209 211 213 212 211 212 214 216 213 208 204 205 207 209 209 212 216 215 210 209 210 209 206 204 199 191
19 30 50 66 76 78 75 69 62 59 58 60 69 79 79 71 56 48 65 119 185 199 202 205 207 210 212 212 210 209 210 211 210 207 207 209 209 208 210 212 213 215 218 224 227 226 227 227 226 223 218 216 217 216 215 216 215 212 211 213 214 213 212 212 212 215 218 219 217 214 213 214 215 214 212 213 213 213 213 212 208 202 197 193 188
37 40 46 61 73 77 76 73 68 65 66 64 66 72 74 69 62 62 69 90 138 166 178 191 201 207 213 215 214 213 213 212 211 209 209 210 209 208 210 211 212 215 219 223 226 227 227 228 227 225 217 210 210 212 213 213 211 210 212 215 215 215 215 214 213 213 215 217 218 217 217 221 224 221 213 209 210 212 212 209 205 198 193 190 188
51 51 50 62 72 73 74 74 70 67 69 69 68 70 72 72 71 71 77 83 92 107 120 124 136 169 204 216 219 221 221 218 217 216 216 216 214 213 214 213 213 217 221 224 225 226 225 225 226 223 214 206 207 210 210 208 206 206 209 210 210 213 214 212 208 206 206 207 209 211 216 222 223 217 210 209 211 212 209 203 197 193 192 192 191
60 59 61 66 69 70 75 77 74 72 74 73 72 72 72 72 73 76 84 85 81 84 92 90 91 101 111 153 206 224 230 229 226 225 224 224 221 220 221 219 217 218 220 223 224 224 223 224 225 217 205 203 208 209 207 206 203 201 203 204 204 208 211 208 201 194 193 194 196 200 203 205 205 202 200 205 210 209 203 195 190 189 192 193 192
61 61 64 66 66 70 76 79 78 80 81 79 77 75 71 69 70 74 84 91 93 95 96 95 95 97 98 104 142 204 221 225 228 230 231 231 229 227 227 227 225 222 222 223 224 224 222 222 222 213 201 200 208 211 211 209 202 197 198 200 201 203 206 204 197 188 181 179 181 186 186 183 184 188 192 200 206 202 193 187 185 187 189 191 190
60 63 66 66 65 70 75 79 81 83 83 82 79 76 73 68 64 64 70 80 88 91 90 89 88 85 88 97 112 167 212 224 230 233 236 238 238 236 236 237 237 234 231 231 233 233 231 228 225 220 214 213 216 218 215 209 202 200 201 202 203 203 200 195 189 187 182 176 174 176 175 173 174 177 182 193 200 196 187 182 183 184 184 186 188
62 65 65 64 64 66 71 76 81 83 84 82 77 73 72 68 64 65 68 72 78 81 79 75 71 67 66 68 75 119 216 237 238 239 241 244 245 245 244 246 247 246 243 241 241 242 242 240 236 233 227 224 224 224 218 209 206 205 204 203 203 201 196 190 186 183 181 178 174 172 171 172 172 173 178 187 193 191 185 182 184 185 183 181 184
Height
765 770 774 777 780 782 785 787 789 792 793 796 797 800 802 804 807 809 811 814 816 818 821 822 824 826 828 830 831 833 835 836 837 838 839 841 842 843 844 846 847 848 850 851 852 853 853 854 855 855 856 857 858 858 858 859 859 860 860 861 862 862 863 863 864 865 865 865 866 867 867 867 868 868 868 868 867 867 867 867 868 868 869 869 869
764 768 770 774 777 779 782 784 787 789 790 793 794 797 799 802 804 806 808 811 812 814 817 818 820 822 825 827 829 831 832 833 835 836 838 839 840 841 842 844 845 847 848 849 850 851 852 853 853 854 855 855 856 856 857 857 858 859 859 860 861 862 863 863 864 864 864 865 865 866 867 867 867 867 868 868 867 867 868 868 868 869 869 869 869
762 764 766 770 773 776 779 781 783 786 788 790 792 794 797 799 801 803 805 807 809 811 813 815 817 819 822 825 827 829 830 832 833 834 836 837 838 839 841 842 844 845 847 848 849 849 850 851 852 853 853 854 855 855 856 856 857 857 858 860 860 861 862 863 863 863 864 864 864 865 866 866 867 867 867 867 867 867 868 868 868 869 869 869 870
760 761 763 766 770 772 774 777 780 783 785 786 788 790 792 794 796 799 801 803 805 807 809 812 815 818 821 823 825 828 829 830 832 833 834 835 836 837 839 840 842 843 845 846 847 848 849 850 851 851 852 853 853 854 854 855 856 856 857 859 860 861 861 862 863 863 863 864 864 865 865 866 868 867 866 867 867 867 868 868 869 869 869 870 870
757 758 760 762 764 767 769 773 776 779 781 782 784 786 788 790 792 794 797 799 802 804 807 811 814 817 820 822 825 826 827 828 829 830 831 833 834 835 837 838 840 842 843 844 845 846 847 848 849 850 850 851 852 852 853 854 854 855 856 857 859 859 860 861 862 862 863 862 863 864 865 867 867 865 866 867 867 867 868 868 868 869 870 870 870
753 754 756 758 760 764 767 770 772 774 775 777 780 782 784 786 789 791 794 796 799 801 805 808 811 814 817 819 821 822 823 824 825 827 828 830 832 833 834 836 838 840 841 842 843 845 846 847 848 848 849 849 850 851 852 852 853 854 855 856 857 858 859 860 861 861 862 862 862 863 864 865 865 865 867 868 867 867 868 868 868 869 869 870 870
750 752 753 755 758 761 763 765 767 768 770 774 777 779 781 783 786 788 791 793 796 799 802 805 808 811 813 814 816 818 819 820 821 823 825 827 829 831 832 834 836 838 839 840 842 843 844 845 846 847 847 848 849 850 850 851 852 853 854 855 856 857 858 859 860 860 861 861 862 862 863 864 864 865 866 867 868 868 867 867 868 868 869 869 870
746 749 749 751 753 754 756 758 760 762 766 771 774 775 777 780 782 785 788 790 793 796 799 801 804 807 809 811 813 814 815 817 819 821 823 825 827 829 830 832 834 835 837 838 840 841 842 843 844 845 845 846 847 848 849 850 850 851 852 853 854 855 856 858 858 859 860 860 861 862 863 863 864 864 864 865 866 867 866 866 867 867 868 869 869
740 743 744 745 747 748 750 753 755 759 764 767 769 771 773 776 779 782 785 787 789 792 795 798 800 803 805 808 809 811 813 815 817 818 820 822 824 826 828 830 831 833 835 836 837 839 840 841 842 843 844 844 845 846 847 848 849 850 851 851 853 854 855 856 857 858 858 859 860 861 862 863 863 864 864 864 864 865 866 864 865 867 867 867 868
735 737 738 739 741 743 746 750 753 757 760 763 766 769 772 774 777 780 781 784 786 789 792 794 797 799 802 804 806 808 810 813 815 816 818 819 821 823 825 827 829 830 832 833 835 836 837 839 839 841 842 843 844 845 846 846 847 848 849 850 851 852 853 854 855 856 857 858 859 860 861 862 863 863 863 864 863 864 864 863 863 865 865 866 867
729 732 733 734 737 741 745 748 750 754 757 761 764 766 769 772 774 777 779 782 784 786 789 791 794 796 798 799 802 804 807 810 812 813 815 817 818 820 822 824 826 828 829 830 832 833 834 836 837 838 839 841 842 843 844 845 845 846 847 848 850 851 852 853 854 855 856 857 858 859 860 861 861 862 862 863 863 863 863 863 862 863 864 865 866
724 727 729 731 734 738 742 744 746 751 754 756 760 763 766 768 771 774 776 779 782 784 786 788 791 793 794 796 798 801 803 805 807 809 811 813 815 818 819 821 823 825 826 828 829 830 831 833 834 836 837 838 840 841 842 843 844 845 846 847 848 849 850 851 852 853 855 856 857 858 859 859 860 861 861 862 862 862 863 863 862 864 865 864 865
718 722 724 726 728 731 735 738 741 745 748 751 754 758 761 764 767 770 773 776 779 781 783 785 787 789 791 793 795 798 800 802 803 805 807 809 812 814 816 818 820 821 823 824 825 827 828 830 831 833 834 836 838 839 840 841 842 843 844 845 846 847 848 849 851 852 854 855 856 857 857 858 859 859 860 861 861 862 863 863 863 864 864 864 865
712 716 718 720 721 724 727 731 735 738 741 744 749 753 756 759 762 765 769 772 775 778 780 782 784 785 787 790 792 795 796 798 800 802 804 806 808 811 812 815 816 818 819 821 822 824 825 827 828 830 832 834 836 837 838 839 840 841 842 844 845 845 846 848 849 851 852 853 854 855 856 857 857 858 859 859 860 861 862 862 863 864 864 864 864
707 709 711 713 714 717 720 724 729 732 735 739 743 747 750 753 756 760 764 767 771 774 776 778 780 782 785 787 789 791 793 795 798 799 801 803 805 807 809 811 813 814 816 817 819 821 823 824 826 827 829 831 833 835 836 837 838 839 841 842 843 844 845 846 848 849 851 851 852 853 854 855 856 857 858 858 859 860 860 861 862 863 864 864 863
702 704 705 707 709 713 715 718 722 725 730 734 737 740 743 747 750 754 758 762 765 769 772 774 776 779 781 783 786 788 790 792 794 796 798 800 802 804 806 808 810 811 813 815 817 818 820 822 823 825 826 828 830 832 833 834 836 837 839 840 841 842 843 844 846 847 848 849 850 851 852 854 855 856 856 857 858 858 859 860 861 862 863 864 863
695 696 697 700 703 707 710 714 717 719 723 727 730 733 736 740 744 748 753 757 760 764 767 770 773 775 777 780 783 785 786 788 790 792 795 797 800 801 803 805 807 808 810 812 814 816 817 819 820 822 824 826 827 829 831 832 833 835 836 838 839 840 841 842 844 845 846 847 848 849 850 852 853 854 855 856 856 857 858 859 860 860 861 862 863
689 688 691 694 698 701 704 708 711 713 716 718 721 725 730 735 739 743 747 749 753 757 761 765 768 771 774 776 779 781 783 785 787 789 792 794 796 798 800 802 803 805 807 809 811 813 814 816 818 820 821 823 824 826 828 829 831 833 834 835 837 838 839 840 841 842 844 845 846 847 848 849 851 852 853 854 855 855 856 857 858 859 859 860 861
685 686 689 691 692 694 696 700 704 707 710 712 715 721 726 730 734 738 741 743 747 752 756 760 763 767 769 771 774 777 779 782 784 786 788 790 792 794 796 798 800 802 804 806 808 809 811 813 814 816 818 820 821 823 825 827 828 830 832 833 834 835 836 838 839 840 841 843 844 845 846 847 849 850 851 852 852 853 854 855 856 857 858 858 859
680 681 683 683 685 687 689 694 697 701 704 707 711 717 721 725 729 733 737 740 745 748 751 754 757 761 764 767 770 772 775 778 780 782 784 785 788 790 792 794 796 798 800 802 804 806 807 809 811 813 815 816 818 819 821 823 826 827 829 830 831 832 834 835 836 837 839 840 841 842 843 845 847 848 849 850 851 851 852 853 854 855 856 857 857
673 675 676 677 679 681 684 689 693 697 701 704 709 713 716 720 723 726 731 735 739 743 746 748 752 756 758 761 765 767 770 773 775 777 779 781 783 785 788 790 792 794 796 798 800 802 803 805 807 809 811 813 814 816 818 820 822 824 826 827 828 829 831 832 833 834 836 837 838 840 841 843 844 846 847 848 849 849 850 851 852 853 854 855 855
667 668 670 672 675 677 680 685 690 694 697 701 705 708 712 715 717 720 725 729 733 737 740 743 747 750 752 755 759 762 765 768 771 773 774 777 779 781 784 786 788 790 792 794 796 797 799 801 803 805 807 809 811 812 814 816 819 821 822 824 825 826 827 829 830 831 832 834 836 837 839 840 842 843 845 846 847 848 848 849 850 850 852 853 853
664 665 667 669 671 673 677 682 685 689 691 695 700 703 706 708 711 716 719 722 726 731 735 738 741 744 747 751 755 757 760 763 765 768 770 772 775 777 780 782 784 786 788 790 791 793 795 797 799 801 803 805 807 809 811 812 815 817 819 820 821 822 824 825 827 828 829 831 833 835 836 837 839 840 842 844 845 846 847 847 848 849 850 851 852
664 665 665 667 669 671 675 678 680 683 687 691 694 696 700 703 707 711 713 716 720 725 729 732 735 739 743 747 750 752 755 758 760 763 765 768 771 773 775 777 780 782 783 785 787 789 791 793 795 797 799 801 803 805 807 809 811 813 815 816 818 819 820 822 823 825 826 828 830 831 832 833 835 837 839 841 842 844 845 846 847 847 848 850 850
664 664 664 666 667 668 671 673 675 678 682 685 688 691 694 698 701 704 707 712 716 721 724 726 730 735 739 741 744 747 750 752 755 758 760 764 766 769 771 773 776 778 779 780 782 785 787 788 790 793 795 797 799 802 804 805 807 809 811 813 814 815 817 818 820 821 823 825 826 827 828 830 832 834 836 838 839 841 843 844 845 846 847 848 849
662 662 663 664 664 665 667 668 670 673 676 679 682 685 688 692 695 698 702 708 712 715 718 721 725 729 732 735 737 741 744 746 749 752 755 758 761 764 766 767 770 772 774 776 778 780 782 783 786 789 791 793 796 798 799 801 803 805 807 809 810 812 814 815 817 818 820 821 822 823 825 826 828 830 832 834 836 838 840 842 843 844 845 847 847
660 661 662 663 663 663 664 664 666 668 670 673 676 679 683 686 689 693 698 703 707 710 713 716 719 723 726 727 730 733 736 740 743 746 749 752 755 758 760 762 764 766 769 771 773 775 777 779 782 784 787 789 792 794 796 797 799 801 803 805 807 809 810 812 813 815 816 817 818 820 822 823 825 827 829 831 833 835 837 838 840 841 843 844 845
658 660 661 661 661 660 661 661 662 664 666 669 672 675 677 680 683 688 693 697 700 704 707 710 713 717 718 720 723 727 730 734 737 740 743 746 749 752 754 756 758 760 763 765 767 770 772 775 777 780 783 785 787 790 791 793 795 797 798 800 803 805 806 808 809 811 812 813 815 817 818 820 822 824 826 827 829 830 832 833 835 837 839 840 842
656 657 657 658 658 658 658 658 659 661 664 666 668 670 673 676 679 683 687 690 694 697 700 704 707 709 711 714 718 723 725 729 732 735 738 740 743 746 749 751 753 754 757 760 763 765 767 770 773 775 778 780 782 784 786 788 790 792 794 796 798 800 802 804 806 807 809 810 811 813 815 817 819 821 822 824 825 826 827 829 830 832 834 836 838
653 653 653 654 653 653 654 656 657 658 659 661 664 666 668 671 674 677 680 684 688 690 694 698 701 702 706 710 715 718 721 724 727 730 732 735 738 741 744 745 747 749 752 755 758 760 762 765 768 770 773 775 777 778 780 783 785 787 790 791 793 796 798 800 802 803 805 806 807 809 811 813 815 817 818 819 820 822 823 824 826 828 830 832 834
650 651 651 651 651 651 652 653 653 652 653 656 658 660 664 667 669 672 675 678 682 684 688 692 694 697 702 706 710 714 717 719 722 725 727 731 734 736 738 740 742 745 748 750 753 755 757 760 762 765 767 769 771 772 774 777 781 783 785 787 788 791 793 795 797 799 801 802 804 806 807 809 811 812 813 814 816 818 819 821 823 825 827 829 831
649 650 650 649 649 649 649 648 647 647 650 651 652 656 660 662 664 665 668 673 677 679 682 685 688 693 698 701 706 709 712 714 717 720 723 726 730 732 733 735 737 740 743 745 747 750 752 755 757 760 761 763 765 766 768 772 775 778 781 783 784 787 789 791 793 795 796 798 799 801 803 805 806 808 809 810 812 814 816 818 820 822 824 826 827
646 648 647 646 644 643 643 642 642 642 643 644 647 651 653 655 658 661 665 670 672 674 677 680 684 689 693 697 702 704 707 709 711 715 719 722 725 726 728 730 732 735 737 739 742 744 747 750 752 754 756 758 760 761 763 767 770 773 776 779 781 783 784 786 788 790 792 793 795 797 798 800 801 803 805 806 808 811 813 815 817 818 820 822 823
644 644 642 641 640 639 638 637 637 638 639 641 645 646 647 651 656 660 665 668 670 672 675 678 682 686 689 693 697 699 701 704 706 710 714 716 718 720 722 725 728 730 732 734 736 739 742 744 746 748 750 752 754 755 757 761 765 768 772 776 778 779 780 782 784 786 787 789 790 792 793 794 796 798 800 802 805 807 809 811 813 814 816 817 819
643 641 639 638 637 637 635 634 634 635 637 639 640 641 644 649 653 656 660 663 667 670 674 678 681 684 687 690 691 693 696 699 702 705 708 710 713 714 717 720 722 725 727 730 733 735 736 738 741 743 745 747 750 751 752 755 759 763 768 772 775 776 776 778 779 781 783 784 785 786 788 789 791 793 795 798 801 802 804 806 808 810 811 812 814
640 639 637 636 634 633 632 632 632 633 634 634 635 638 643 646 649 652 655 658 662 666 670 674 677 680 683 685 686 689 692 695 699 702 704 706 708 710 712 715 718 720 723 726 729 730 731 733 736 739 740 743 746 746 746 750 754 759 764 769 771 772 773 773 775 776 778 779 780 782 783 784 786 788 790 793 796 798 799 801 803 805 807 809 810
637 636 635 634 633 631 630 630 630 630 630 630 633 637 640 643 646 649 652 655 659 661 664 667 670 672 675 678 682 685 688 692 695 697 699 701 703 706 709 711 713 715 717 721 724 725 727 730 732 733 735 737 741 741 742 746 751 756 761 764 766 768 769 769 770 771 773 774 776 777 778 780 781 783 786 789 793 795 797 798 800 802 803 805 806
636 635 633 632 631 629 628 628 628 627 628 629 632 634 637 640 642 645 648 652 655 657 659 661 663 665 668 672 676 680 684 688 690 692 693 695 698 701 703 705 708 710 712 716 719 722 725 726 727 728 729 732 735 736 738 742 746 751 755 758 761 764 765 765 765 767 768 770 771 773 774 776 778 780 784 789 792 795 796 797 799 800 800 801 803
636 635 633 631 630 628 627 627 627 627 627 628 630 632 635 637 640 643 646 648 650 652 654 656 659 662 665 669 672 676 679 682 684 686 689 691 694 697 699 702 704 706 709 712 715 718 720 720 721 723 726 728 730 731 733 736 741 745 749 752 756 759 760 760 761 762 764 766 767 769 771 773 776 779 783 787 790 792 794 796 798 799 798 799 800
636 635 633 631 629 627 627 627 628 628 628 628 630 632 634 636 639 641 643 644 646 648 651 654 658 662 665 667 670 672 674 676 678 681 685 689 692 694 697 699 700 703 706 709 711 712 713 713 716 719 721 722 724 725 726 729 734 738 742 746 750 752 753 754 756 757 760 761 763 765 767 770 773 776 780 784 786 788 790 793 795 797 797 797 797
638 636 635 632 630 628 628 629 629 628 628 629 630 631 633 636 638 640 641 643 646 648 651 655 658 661 664 666 668 670 671 672 675 679 683 686 688 691 693 695 697 700 702 704 706 707 708 709 711 713 715 716 717 717 719 722 726 730 734 738 742 743 745 748 750 752 754 756 758 761 763 766 769 773 776 780 782 784 786 788 791 793 795 795 796
640 638 636 633 631 630 630 630 630 629 629 629 630 632 634 637 639 641 642 644 645 647 649 653 655 658 661 663 665 668 670 672 675 678 680 683 685 688 690 692 694 696 697 700 701 703 704 705 707 708 709 710 711 711 711 714 718 721 725 730 732 733 737 741 744 746 749 751 754 756 759 761 765 770 774 778 780 782 783 785 787 790 792 794 794
643 641 636 634 632 632 632 632 631 630 630 630 631 633 635 637 639 641 643 644 645 646 648 651 653 655 657 658 661 664 667 670 673 675 677 680 682 685 686 688 690 692 694 695 696 698 700 701 702 703 704 705 707 707 707 709 712 715 717 720 722 724 728 733 736 738 741 745 749 752 755 758 763 768 773 776 779 780 780 782 784 787 789 791 793
645 642 638 635 633 632 633 633 633 633 632 632 633 634 636 639 641 642 643 643 645 646 648 650 651 653 655 656 658 661 664 667 669 672 674 676 678 680 682 683 685 687 689 690 691 693 695 695 696 698 699 701 705 705 704 707 710 712 713 714 715 718 722 726 728 731 734 739 743 748 751 754 759 764 769 774 777 777 778 780 782 784 787 789 791
646 644 640 638 635 634 634 634 635 635 635 635 635 636 638 640 642 642 642 643 644 645 647 649 650 652 653 655 657 659 661 663 666 668 670 671 673 675 677 678 680 682 684 685 687 689 690 689 690 691 692 696 701 701 701 704 709 712 715 716 716 717 718 720 722 724 729 734 739 743 747 751 755 759 763 770 773 774 776 778 780 782 785 787 789
646 645 643 640 638 636 636 636 637 638 638 638 638 639 640 641 642 642 642 642 643 644 646 647 649 650 652 654 656 657 659 661 662 664 665 666 668 669 671 672 674 676 678 679 680 682 683 684 685 685 686 689 693 693 694 697 702 706 710 713 716 719 719 719 721 723 727 731 735 740 744 749 754 758 761 765 769 773 775 777 778 780 783 785 786
646 646 645 643 640 639 638 638 639 639 639 640 640 640 642 643 643 643 643 643 643 644 645 647 648 650 651 653 654 656 658 659 661 662 663 664 665 666 667 668 669 671 672 674 674 675 676 676 677 678 681 684 686 686 686 688 691 695 697 701 708 714 717 720 722 725 726 729 733 737 742 748 754 759 762 765 769 773 775 774 775 779 781 783 784
647 647 647 645 644 642 641 640 641 641 641 641 641 642 643 643 643 643 643 643 644 645 646 647 648 649 651 652 653 654 656 658 659 660 661 661 662 663 663 663 663 665 666 667 667 667 668 667 668 670 674 676 678 677 676 677 681 687 693 699 705 710 715 719 721 723 724 728 732 735 739 745 750 756 761 766 770 773 773 772 774 777 780 781 782
649 649 649 649 648 647 644 643 644 644 643 643 643 644 644 644 644 644 643 644 645 645 646 647 648 649 650 651 652 653 654 655 656 657 658 658 659 659 659 658 658 659 660 660 660 659 659 660 662 664 665 667 667 665 665 668 673 679 685 690 694 699 705 711 717 721 723 726 731 735 737 740 746 753 760 767 772 774 773 771 773 776 778 779 780
651 650 651 652 652 651 648 647 646 646 646 645 645 645 645 645 644 644 644 645 645 646 647 648 648 649 650 650 651 652 652 653 654 654 655 655 655 655 655 654 655 656 656 656 656 656 656 658 659 658 657 657 658 658 661 667 671 672 673 675 678 683 688 695 704 713 719 723 727 732 735 737 741 748 757 767 774 776 773 771 772 775 776 777 778
652 651 652 654 654 653 651 649 649 649 648 648 647 647 646 646 646 646 646 646 646 647 647 648 649 649 650 650 651 651 651 652 652 652 652 652 651 651 651 651 651 652 652 652 653 653 654 656 656 655 653 654 657 658 661 664 666 666 667 670 674 680 685 689 693 700 708 714 718 723 728 732 735 740 749 760 769 772 772 771 772 774 775 775 776